Regional Weather Roundup
Issued by NWS New Orleans/Baton Rouge, LA

Home | Current Version | Previous Version | Text Only | Print | Product List | Glossary On
Versions: 1 2 3 4 5 6 7 8 9 10 11 12 13 14 15 16 17 18 19 20 21 22 23 24 25 26 27 28 29 30 31 32 33 34 35 36 37 38 39 40 41 42 43 44 45 46 47 48 49 50
000
ASUS44 KLIX 201112
RWRLIX
NEW ORLEANS REGIONAL WEATHER ROUNDUP
NATIONAL WEATHER SERVICE NEW ORLEANS LA
500 AM CST TUE FEB 20 2018

NOTE: "FAIR" INDICATES FEW OR NO CLOUDS BELOW 12,000 FEET WITH NO
      SIGNIFICANT WEATHER AND/OR OBSTRUCTIONS TO VISIBILITY.
      SKY/WX - SKY CONDITION AND SIGNIFICANT WEATHER.
      TMP - AIR TEMPERATURE.     DP    - DEWPOINT TEMPERATURE.
      RH  - RELATIVE HUMIDITY.   PRES  - PRESSURE.
      HI  - HEAT INDEX.          WCI   - WIND CHILL INDEX.

*  THESE STATIONS ARE NOT NWS OR FAA STATIONS AND ARE NOT UNDER
   NWS QUALITY CONTROL.

LAZ038-040-048-061>063-065>067-069-201200-
SOUTHEAST LOUISIANA

CITY           SKY/WX    TMP DP  RH WIND       PRES   REMARKS
N.O. INTL ARPT FAIR      70  68  93 SE10      30.11F
N.O. LAKEFRONT FAIR      69  67  93 E8        30.13S
N.O. DOWNTOWN* FAIR      70  67  90 SE7       30.13S
RESERVE*       FAIR      70  67  88 SE7       30.11S
SLIDELL        CLOUDY    70  68  93 SE9       30.13S
BATON ROUGE    CLOUDY    67  66  97 E8        30.09S FOG
BOOTHVILLE     NOT AVBL
BELLE CHASSE   NOT AVBL
BOGALUSA*      CLOUDY    71  66  84 S9        30.14F
GALLIANO*      FAIR      72  67  85 SE8       30.11S
NEW ROADS*     CLOUDY    69  66  92 SE7       30.08F
GONZALES*      NOT AVBL
HAMMOND*       FAIR      68  64  88 SE9       30.11F
HOUMA*         MOCLDY    71  69  93 SE9       30.10S
PORT FOURCHON* PTSUNNY   73  70  88 SE12      30.12R

$$

MSZ070-080>082-201200-
SOUTHERN MISSISSIPPI

CITY           SKY/WX    TMP DP  RH WIND       PRES   REMARKS
MCCOMB         CLOUDY    69  65  86 SE14      30.12S
GULFPORT       CLOUDY    70  69  97 SE13      30.15F
BILOXI         MOCLDY    69  67  95 SE8       30.16F
PASCAGOULA     MOCLDY    69  66  90 SE10      30.18S

$$

COASTAL OBSERVATIONS
LAKE AND NEARSHORE STATIONS

STATION/POSITION TIME  SKY/WX   TEMP    WIND        PRES    WAVE
                                AIR SEA DIR/SP/G            HT/PER
                 (UTC)          (F)     (DEG/KT/KT) (MB)    (FT/S)
WAVELAND YACHT   1048            69 71  130/ 16/ 19 1021.0
GRAND ISLE       1048            71 71  130/  5/ 10 1020.0
SOUTHWEST PASS   1048            70 48  140/ 18/ 23 1020.6
NEW CANAL        1048            68 65   90/  1/  3 1019.9
SHELL BEACH      1048            70 74  110/ 12/ 13 1020.4

OFFSHORE STATIONS

STATION/POSITION TIME  SKY/WX   TEMP    WIND        PRES    WAVE
                                AIR SEA DIR/SP/G            HT/PER
                 (UTC)          (F)     (DEG/KT/KT) (MB)    (FT/S)
64 S DAUPHIN ISL 1050               71  120/ 14/ 17 1021.7    5/ 7

$$





USA.gov is the U.S. government's official web portal to all federal, state and local government web resources and services.